IA5ITY-13 Weather Reports


Display with metric or nautical units.
time (UTC)temp
F
wind
direction
speed
MPH
gust
MPH
rain 1hr
in
rain 24hr
in
rain mn
in
humidity
%
barometer
mb
20260507075509 68 127 1.0 4.0 0.00 0.00 0.00 61 1012.7
20260507075013 70 138 1.0 1.0 0.00 0.00 0.00 58 1012.8
20260507074513 70 127 2.0 9.0 0.00 0.00 0.00 58 1012.8
20260507074013 70 133 2.0 5.0 0.00 0.00 0.00 58 1012.9
20260507073509 68 129 4.0 6.0 0.00 0.00 0.00 60 1012.8
20260507073024 68 167 2.0 2.0 0.00 0.00 0.00 60 1012.8
20260507072509 70 140 1.0 1.0 0.00 0.00 0.00 59 1012.9
20260507072014 72 113 1.0 2.0 0.00 0.00 0.00 58 1013.0
20260507071513 70 141 1.0 1.0 0.00 0.00 0.00 57 1013.1
20260507071014 72 90 0.0 0.0 0.00 0.00 0.00 58 1013.1
20260507070510 72 95 0.0 0.0 0.00 0.00 0.00 58 1012.9
20260507070033 72 92 0.0 0.0 0.00 0.00 0.00 60 1012.9
20260507065511 72 84 0.0 0.0 0.00 0.00 0.00 63 1012.8
20260507065014 72 82 0.0 0.0 0.00 0.00 0.00 63 1012.8
20260507064514 70 87 0.0 0.0 0.00 0.00 0.00 65 1012.7
20260507064014 70 90 0.0 0.0 0.00 0.00 0.00 70 1012.6
20260507063509 70 107 0.0 0.0 0.00 0.00 0.00 73 1012.6
20260507063023 70 91 0.0 0.0 0.00 0.00 0.00 82 1012.5
20260507062510 68 92 0.0 0.0 0.00 0.00 0.00 88 1012.5
20260507062013 66 85 0.0 0.0 0.00 0.00 0.00 86 1012.5
20260507061512 68 94 0.0 0.0 0.00 0.00 0.00 90 1012.5
20260507060510 64 67 0.0 0.0 0.00 0.00 0.00 94 1012.4
20260507060034 64 67 0.0 0.0 0.00 0.00 0.00 94 1012.4
20260507055509 64 66 0.0 0.0 0.00 0.00 0.00 94 1012.3
20260507055014 64 68 0.0 0.0 0.00 0.00 0.00 99 1012.3
20260507054514 63 68 1.0 4.0 0.00 0.00 0.00 96 1012.2
20260507054013 63 33 3.0 4.0 0.00 0.00 0.00 99 1012.2
20260507053510 63 43 0.0 0.0 0.00 0.00 0.00 99 1012.2
20260507052510 61 60 0.0 0.0 0.00 0.00 0.00 99 1012.1
20260507052013 57 51 0.0 0.0 0.00 0.00 0.00 99 1012.0
20260507051513 57 49 0.0 0.0 0.00 0.00 0.00 99 1012.0
20260507051014 57 69 0.0 0.0 0.00 0.00 0.00 99 1011.9
20260507050510 57 50 0.0 0.0 0.00 0.00 0.00 99 1011.8
20260507050031 57 37 5.0 5.0 0.00 0.00 0.00 99 1011.8
20260507045509 55 43 3.0 3.0 0.00 0.00 0.00 99 1011.7
20260507045013 57 59 2.0 4.0 0.00 0.00 0.00 99 1011.6
20260507044513 57 44 4.0 4.0 0.00 0.00 0.00 99 1011.6
20260507044013 57 40 0.0 0.0 0.00 0.00 0.00 99 1011.6
20260507043509 55 48 1.0 1.0 0.00 0.00 0.00 99 1011.6
20260507043023 55 53 0.0 0.0 0.00 0.00 0.00 99 1011.6
20260507042509 55 42 0.0 0.0 0.00 0.00 0.00 99 1011.6
20260507042013 55 36 0.0 0.0 0.00 0.00 0.00 99 1011.6
20260507041513 55 52 0.0 0.0 0.00 0.00 0.00 99 1011.5
20260507041013 55 72 0.0 0.0 0.00 0.00 0.00 99 1011.5
20260507040509 55 68 2.0 4.0 0.00 0.00 0.00 99 1011.4
20260507040032 55 56 4.0 4.0 0.00 0.00 0.00 99 1011.4
20260507035509 55 51 2.0 2.0 0.00 0.00 0.00 99 1011.4
20260507035013 55 51 1.0 1.0 0.00 0.00 0.00 99 1011.5
20260507034014 55 44 1.0 2.0 0.00 0.00 0.00 99 1011.4
20260507033022 55 52 2.0 2.0 0.00 0.00 0.00 99 1011.3
20260507032509 55 79 1.0 1.0 0.00 0.00 0.00 99 1011.3
20260507032012 57 56 0.0 0.0 0.00 0.00 0.00 98 1011.3
20260507031512 57 63 0.0 0.0 0.00 0.00 0.00 98 1011.2
20260507031013 57 69 0.0 0.0 0.00 0.00 0.00 98 1011.2
20260507030509 59 74 0.0 0.0 0.00 0.00 0.00 99 1011.2
20260507030033 57 33 0.0 0.0 0.00 0.00 0.00 99 1011.2
20260507025509 57 29 0.0 0.0 0.00 0.00 0.00 99 1011.2
20260507025012 57 64 0.0 0.0 0.00 0.00 0.00 99 1011.2
20260507024513 57 41 0.0 0.0 0.00 0.00 0.00 99 1011.2
20260507024013 59 32 2.0 2.0 0.00 0.00 0.00 98 1011.2
20260507023509 59 46 0.0 0.0 0.00 0.00 0.00 99 1011.2
20260507023024 57 25 0.0 0.0 0.00 0.00 0.00 99 1011.2
20260507022509 59 50 0.0 0.0 0.00 0.00 0.00 99 1011.2
20260507022013 59 51 0.0 0.0 0.00 0.00 0.00 99 1011.1
20260507021512 59 35 0.0 0.0 0.00 0.00 0.00 99 1011.1
20260507021013 57 27 0.0 0.0 0.00 0.00 0.00 99 1011.2
20260507020509 57 52 1.0 1.0 0.00 0.00 0.00 99 1011.1
20260507020031 59 45 1.0 1.0 0.00 0.00 0.00 99 1011.1
20260507015509 59 59 0.0 0.0 0.00 0.00 0.00 99 1011.1
20260507015013 59 58 1.0 2.0 0.00 0.00 0.00 99 1011.0
20260507014513 59 45 0.0 0.0 0.00 0.00 0.00 99 1011.0
20260507014014 59 64 1.0 1.0 0.00 0.00 0.00 99 1011.0
20260507013022 59 86 0.0 0.0 0.00 0.00 0.00 99 1011.0
20260507012510 59 18 0.0 0.0 0.00 0.00 0.00 99 1010.9
20260507012014 59 50 0.0 0.0 0.00 0.00 0.00 99 1010.8
20260507011513 59 66 0.0 0.0 0.00 0.00 0.00 99 1010.8
20260507011012 59 25 0.0 0.0 0.00 0.00 0.00 99 1010.8
20260507010510 59 53 0.0 0.0 0.00 0.00 0.00 99 1010.9
20260507010032 59 70 0.0 0.0 0.00 0.00 0.00 99 1010.9
20260507005509 61 55 0.0 0.0 0.00 0.00 0.00 99 1010.9
20260507005013 59 41 0.0 0.0 0.00 0.00 0.00 99 1010.9
20260507004512 59 70 0.0 0.0 0.00 0.00 0.00 99 1011.0
20260507004014 59 57 1.0 1.0 0.00 0.00 0.00 99 1011.0
20260507003509 59 47 0.0 0.0 0.00 0.00 0.00 99 1011.0
20260507003023 61 36 1.0 1.0 0.00 0.00 0.00 99 1010.9
20260507002510 61 40 0.0 0.0 0.00 0.00 0.00 99 1010.9
20260507002014 59 27 0.0 0.0 0.00 0.00 0.00 99 1010.8
20260507001513 59 357 0.0 0.0 0.00 0.00 0.00 99 1010.8
20260507001012 59 34 0.0 0.0 0.00 0.00 0.00 99 1010.7
20260507000510 61 67 0.0 0.0 0.00 0.00 0.00 99 1010.7
20260507000034 59 61 0.0 0.0 0.00 0.00 0.00 99 1010.6
20260506235509 59 64 0.0 0.0 0.00 0.00 0.00 99 1010.6
20260506235013 59 65 0.0 0.0 0.00 0.00 0.00 99 1010.7
20260506234514 59 56 0.0 0.0 0.00 0.00 0.00 99 1010.7
20260506234013 59 51 0.0 0.0 0.00 0.00 0.00 99 1010.7
20260506233509 61 125 0.0 0.0 0.00 0.00 0.00 99 1010.7
20260506233023 59 67 0.0 0.0 0.00 0.00 0.00 99 1010.7
20260506232509 59 58 0.0 0.0 0.00 0.00 0.00 99 1010.7
20260506232012 57 39 0.0 0.0 0.00 0.00 0.00 99 1010.7
20260506231513 57 72 0.0 0.0 0.00 0.00 0.00 99 1010.7
20260506231013 57 71 1.0 2.0 0.00 0.00 0.00 99 1010.7
20260506230509 59 30 0.0 0.0 0.00 0.00 0.00 99 1010.6
20260506225511 59 56 0.0 0.0 0.00 0.00 0.00 99 1010.6
20260506225013 59 65 0.0 0.0 0.00 0.00 0.00 99 1010.6
20260506224513 59 59 1.0 1.0 0.00 0.00 0.00 99 1010.6
20260506224013 59 65 1.0 2.0 0.00 0.00 0.00 99 1010.6
20260506223509 59 60 0.0 0.0 0.00 0.00 0.00 99 1010.6
20260506222509 59 67 0.0 0.0 0.00 0.00 0.00 99 1010.7
20260506222013 59 73 1.0 1.0 0.00 0.00 0.00 99 1010.8
20260506221513 59 44 0.0 0.0 0.00 0.00 0.00 99 1010.7
20260506221014 59 47 0.0 0.0 0.00 0.00 0.00 99 1010.7
20260506220511 61 80 0.0 0.0 0.00 0.00 0.00 99 1010.6
20260506220034 61 74 0.0 0.0 0.00 0.00 0.00 99 1010.6
20260506214513 61 12 0.0 0.0 0.00 0.00 0.00 99 1010.6
20260506213023 61 60 0.0 0.0 0.00 0.00 0.00 99 1010.6
20260506212013 61 58 0.0 0.0 0.00 0.00 0.00 99 1010.6
20260506211514 63 72 0.0 0.0 0.00 0.00 0.00 99 1010.7
20260506211013 63 88 0.0 0.0 0.00 0.00 0.00 99 1010.8
20260506210509 63 94 0.0 0.0 0.00 0.00 0.00 99 1010.8
20260506210031 63 86 0.0 0.0 0.00 0.00 0.00 99 1010.7
20260506205509 63 78 0.0 0.0 0.00 0.00 0.00 99 1010.7
20260506205015 63 76 0.0 0.0 0.00 0.00 0.00 99 1010.7
20260506204014 63 83 0.0 0.0 0.00 0.00 0.00 99 1010.8
20260506203509 63 89 0.0 0.0 0.00 0.00 0.00 99 1010.7
20260506203024 63 95 0.0 0.0 0.00 0.00 0.00 99 1010.7
20260506202014 63 90 0.0 0.0 0.00 0.00 0.00 99 1010.6
20260506201513 63 61 0.0 0.0 0.00 0.00 0.00 99 1010.5
20260506200510 63 52 0.0 0.0 0.00 0.00 0.00 99 1010.5
20260506200031 63 69 0.0 0.0 0.00 0.00 0.00 99 1010.4
20260506195013 63 90 0.0 0.0 0.00 0.00 0.00 99 1010.3
20260506194512 64 77 0.0 0.0 0.00 0.00 0.00 99 1010.2
20260506194013 64 98 0.0 0.0 0.00 0.00 0.00 99 1010.2
20260506193509 64 79 0.0 0.0 0.00 0.00 0.00 99 1010.1
20260506193023 64 85 0.0 0.0 0.00 0.00 0.00 99 1010.0
20260506192509 64 11 0.0 0.0 0.00 0.00 0.00 99 1010.0
20260506191513 64 73 0.0 0.0 0.00 0.00 0.00 99 1009.9
20260506190033 64 83 0.0 0.0 0.00 0.00 0.00 99 1009.7
20260506185509 64 359 0.0 0.0 0.00 0.00 0.00 99 1009.7
20260506185014 64 78 1.0 1.0 0.00 0.00 0.00 99 1009.6
20260506184014 64 46 0.0 0.0 0.00 0.00 0.00 99 1009.4
20260506183510 64 46 0.0 0.0 0.00 0.00 0.00 99 1009.4
20260506183024 64 61 0.0 0.0 0.00 0.00 0.00 99 1009.3
20260506182510 64 87 0.0 0.0 0.00 0.00 0.00 99 1009.3
20260506182014 64 85 0.0 0.0 0.00 0.00 0.00 99 1009.4
20260506181513 64 76 0.0 0.0 0.00 0.00 0.00 99 1009.3
20260506180512 64 19 0.0 0.0 0.00 0.00 0.00 99 1009.3
20260506175509 64 60 0.0 0.0 0.00 0.00 0.00 99 1009.3
20260506175013 64 357 0.0 0.0 0.00 0.00 0.00 99 1009.3
20260506174013 64 80 0.0 0.0 0.00 0.00 0.00 99 1009.3
20260506173509 64 66 1.0 1.0 0.00 0.00 0.00 99 1009.3
20260506173025 64 88 1.0 1.0 0.00 0.00 0.00 99 1009.4
20260506172014 64 85 0.0 0.0 0.00 0.00 0.00 99 1009.2
20260506171513 64 82 0.0 0.0 0.00 0.00 0.00 99 1009.2
20260506171014 66 25 0.0 0.0 0.00 0.00 0.00 99 1009.2
20260506170509 66 64 0.0 0.0 0.00 0.00 0.00 99 1009.2
20260506170033 66 27 0.0 0.0 0.00 0.00 0.00 99 1009.2
20260506165013 66 33 0.0 0.0 0.00 0.00 0.00 99 1009.2
20260506164512 66 44 0.0 0.0 0.00 0.00 0.00 99 1009.2
20260506164013 66 22 0.0 0.0 0.00 0.00 0.00 99 1009.3
20260506163510 66 30 0.0 0.0 0.00 0.00 0.00 99 1009.3
20260506163025 66 54 0.0 0.0 0.00 0.00 0.00 99 1009.4
20260506162510 66 42 1.0 1.0 0.00 0.00 0.00 99 1009.3
20260506162013 66 63 0.0 0.0 0.00 0.00 0.00 98 1009.3
20260506161512 68 37 0.0 0.0 0.00 0.00 0.00 96 1009.4
20260506161014 68 19 0.0 0.0 0.00 0.00 0.00 96 1009.4
20260506160509 68 2 0.0 0.0 0.00 0.00 0.00 93 1009.4
20260506160035 68 51 0.0 0.0 0.00 0.00 0.00 92 1009.4
20260506155510 68 47 0.0 0.0 0.00 0.00 0.00 89 1009.4
20260506155014 70 29 0.0 0.0 0.00 0.00 0.00 88 1009.4
20260506154513 70 63 0.0 0.0 0.00 0.00 0.00 86 1009.4
20260506154013 70 91 0.0 0.0 0.00 0.00 0.00 90 1009.4
20260506153510 70 20 0.0 0.0 0.00 0.00 0.00 86 1009.4
20260506153026 72 67 0.0 0.0 0.00 0.00 0.00 83 1009.4
20260506152509 72 111 1.0 1.0 0.00 0.00 0.00 80 1009.5
20260506152012 72 162 0.0 0.0 0.00 0.00 0.00 82 1009.3
20260506150510 73 49 0.0 0.0 0.00 0.00 0.00 78 1009.5
20260506150034 72 74 1.0 1.0 0.00 0.00 0.00 85 1009.4
20260506145510 72 17 0.0 0.0 0.00 0.00 0.00 91 1009.4
20260506145014 70 45 0.0 0.0 0.00 0.00 0.00 92 1009.4
20260506144516 70 40 0.0 0.0 0.00 0.00 0.00 90 1009.5
20260506144013 70 56 0.0 0.0 0.00 0.00 0.00 93 1009.6
20260506143509 70 56 0.0 0.0 0.00 0.00 0.00 99 1009.5
20260506143023 68 185 1.0 1.0 0.00 0.00 0.00 99 1009.5
20260506142511 68 170 0.0 0.0 0.00 0.00 0.00 98 1009.5
20260506142013 68 122 0.0 0.0 0.00 0.00 0.00 98 1009.5
20260506141513 68 98 0.0 0.0 0.00 0.00 0.00 97 1009.6
20260506141013 70 170 0.0 0.0 0.00 0.00 0.00 90 1009.5
20260506140509 72 91 0.0 0.0 0.00 0.00 0.00 88 1009.6
20260506140034 70 94 0.0 0.0 0.00 0.00 0.00 92 1009.6
20260506135509 72 181 0.0 0.0 0.00 0.00 0.00 89 1009.7
20260506135014 70 135 0.0 0.0 0.00 0.00 0.00 90 1009.7
20260506134513 70 97 0.0 0.0 0.00 0.00 0.00 90 1009.7
20260506134015 72 26 0.0 0.0 0.00 0.00 0.00 85 1009.6
20260506133509 73 123 0.0 0.0 0.00 0.00 0.00 82 1009.7
20260506133024 73 94 0.0 0.0 0.00 0.00 0.00 87 1009.8
20260506132510 73 176 1.0 1.0 0.00 0.00 0.00 92 1009.8
20260506132014 70 173 0.0 0.0 0.00 0.00 0.00 93 1009.7
20260506131513 72 145 0.0 0.0 0.00 0.00 0.00 88 1009.8
20260506131013 72 152 0.0 0.0 0.00 0.00 0.00 89 1009.8
20260506130510 72 152 0.0 0.0 0.00 0.00 0.00 90 1009.9
20260506130035 72 92 0.0 0.0 0.00 0.00 0.00 94 1010.0
20260506125509 72 87 1.0 1.0 0.00 0.00 0.00 99 1010.1
20260506125013 70 116 0.0 0.0 0.00 0.00 0.00 95 1010.1
20260506124513 72 150 0.0 0.0 0.00 0.00 0.00 98 1009.9
20260506124014 70 96 0.0 0.0 0.00 0.00 0.00 98 1010.0
20260506123509 70 100 1.0 1.0 0.00 0.00 0.00 97 1010.1
20260506123025 70 96 0.0 0.0 0.00 0.00 0.00 99 1010.0
20260506122509 70 76 0.0 0.0 0.00 0.00 0.00 99 1010.0
20260506122014 72 177 0.0 0.0 0.00 0.00 0.00 99 1010.0
20260506121513 70 155 0.0 0.0 0.00 0.00 0.00 99 1010.1
20260506121013 70 105 0.0 0.0 0.00 0.00 0.00 99 1010.1
20260506120509 66 184 1.0 4.0 0.00 0.00 0.00 99 1010.0
20260506120034 66 319 0.0 0.0 0.00 0.00 0.00 99 1010.0
20260506115509 66 93 0.0 0.0 0.00 0.00 0.00 99 1010.1
20260506115012 66 175 0.0 0.0 0.00 0.00 0.00 99 1010.1
20260506114512 68 94 0.0 0.0 0.00 0.00 0.00 99 1010.2
20260506114013 68 175 0.0 0.0 0.00 0.00 0.00 99 1010.1
20260506113510 66 85 0.0 0.0 0.00 0.00 0.00 99 1010.1
20260506113024 66 83 0.0 0.0 0.00 0.00 0.00 99 1010.2
20260506112509 66 96 0.0 0.0 0.00 0.00 0.00 99 1009.9
20260506112013 66 303 0.0 0.0 0.00 0.00 0.00 99 1009.9
20260506111513 66 114 0.0 0.0 0.00 0.00 0.00 99 1010.1
20260506111014 68 281 0.0 0.0 0.00 0.00 0.00 99 1009.9
20260506110510 66 299 0.0 0.0 0.00 0.00 0.00 99 1010.0
20260506110032 66 176 0.0 0.0 0.00 0.00 0.00 99 1010.1
20260506105510 68 343 0.0 0.0 0.00 0.00 0.00 99 1010.0
20260506105013 66 86 0.0 0.0 0.00 0.00 0.00 99 1010.2
20260506104513 68 90 0.0 0.0 0.00 0.00 0.00 99 1010.1
20260506104013 68 264 0.0 0.0 0.00 0.00 0.00 99 1010.1
20260506103508 68 317 0.0 0.0 0.00 0.00 0.00 99 1010.2
20260506103023 66 91 0.0 0.0 0.00 0.00 0.00 99 1010.2
20260506102509 66 239 0.0 0.0 0.00 0.00 0.00 99 1010.2
20260506102013 66 359 0.0 0.0 0.00 0.00 0.00 99 1010.3
20260506101513 68 300 4.0 4.0 0.00 0.00 0.00 99 1010.2
20260506101013 66 48 1.0 1.0 0.00 0.00 0.00 99 1010.2
20260506100510 66 32 0.0 0.0 0.00 0.00 0.00 99 1010.2
20260506100036 64 8 0.0 0.0 0.00 0.00 0.00 99 1010.1
20260506095509 64 324 1.0 3.0 0.00 0.00 0.00 99 1010.2
20260506095013 64 334 0.0 0.0 0.00 0.00 0.00 99 1010.2
20260506094513 64 213 3.0 4.0 0.00 0.00 0.00 99 1010.2
20260506094014 64 109 1.0 3.0 0.00 0.00 0.00 99 1010.1
20260506093510 64 85 0.0 0.0 0.00 0.00 0.00 99 1010.2
20260506093023 66 88 1.0 1.0 0.00 0.00 0.00 99 1010.2
20260506092509 66 114 0.0 0.0 0.00 0.00 0.00 99 1010.1
20260506092013 66 23 1.0 5.0 0.00 0.00 0.00 99 1009.9
20260506091512 66 154 0.0 0.0 0.00 0.00 0.00 99 1009.9
20260506091012 64 331 3.0 6.0 0.00 0.00 0.00 99 1009.7
20260506090509 64 63 0.0 0.0 0.00 0.00 0.00 99 1009.7
20260506090032 64 170 0.0 0.0 0.00 0.00 0.00 99 1009.6
20260506085509 64 206 0.0 0.0 0.00 0.00 0.00 99 1009.5
20260506085013 64 238 0.0 0.0 0.00 0.00 0.00 99 1009.3
20260506084513 64 307 0.0 0.0 0.00 0.00 0.00 99 1009.4
20260506084013 64 280 0.0 0.0 0.00 0.00 0.00 99 1009.2
20260506083509 64 81 0.0 0.0 0.00 0.00 0.00 99 1009.5
20260506083023 64 232 0.0 0.0 0.00 0.00 0.00 99 1009.1
20260506082510 64 270 3.0 7.0 0.00 0.00 0.00 99 1009.2
20260506082013 64 257 2.0 2.0 0.00 0.00 0.00 99 1009.4
20260506081512 64 50 1.0 2.0 0.00 0.00 0.00 99 1009.2
20260506081015 64 149 1.0 1.0 0.00 0.00 0.00 99 1009.1
20260506080509 64 356 0.0 0.0 0.00 0.00 0.00 99 1009.1